Location: Zürich
(47.3769°N, 8.5417°E)
Time: 10:50:33
(UTC+02:00)

ISS - Pass Details

Date: 19 May 2021
Orbit: 417 x 422 km, 51.6° (Epoch: 13 June)

Event Time Altitude Azimuth Distance (km) Brightness Sun altitude
Rises 23:41:45 0° 281° (WNW) 2,365 0.6 -19.0°
Reaches altitude 10° 23:43:56 10° 290° (WNW) 1,502 -0.4 -19.1°
Maximum altitude 23:47:07 38° 0° (N) 663 -2.3 -19.3°
Drops below altitude 10° 23:50:18 10° 71° (ENE) 1,505 -1.0 -19.5°
Enters shadow 23:50:21 10° 71° (ENE) 1,523 -1.0 -19.5°
